Home > Weather > St. Pölten > Past weeks

Flag for Austria Weather for the Past 2 Weeks in St. Pölten, Lower Austria, Austria

Now
48 °F

Partly sunny.


Feels Like: 42 °F
Forecast: 45 / 60 °F
Wind: 16 mph from West

Location: Tulln Airport

Current Time: May 4, 2016 at 4:04:42 PM

Latest Report: May 4, 2016 at 3:20 PM


Visibility: 9 mi

Pressure: 30.21 "Hg

Humidity: 87%

Dew Point: 45 °F

Location of St. PöltenLocation

Historic Weather in St. Pölten — Graph

°F

St. Pölten Temperature Yesterday

Maximum temperature yesterday: 61 °F (at 1:50 PM)
Minimum temperature yesterday: 50 °F (at 10:50 PM)
Average temperature yesterday: 56 °F

High & Low Weather Summary for the Past Weeks

 TemperatureHumidityPressure
High72 °F (Apr 22, 2:50 PM)100% (Apr 27, 7:50 AM)30.36 "Hg (Apr 27, 7:50 AM)
Low30 °F (Apr 28, 5:50 AM)27% (Apr 20, 3:50 PM)29.56 "Hg (Apr 26, 6:50 PM)
Average52 °F61%29.98 "Hg
* Reported Apr 19 1:50 PM — May 4 1:50 PM, St. Pölten, Weather by CustomWeather, © 2016

Note: Actual official high and low records may vary slightly from our data, if they occured in-between our weather recording intervals... More about our weather records

Advertising

St. Pölten Weather History for the Previous 24 Hours

Scroll right to see more
 ConditionsComfort  
Time TempWeatherWind HumidityBarometerVisibility
1:50 PM
Wed, May 4
48 °FDrizzle. Partly sunny.17 mph87%30.21 "Hg9 mi
12:50 PM46 °FPartly sunny.17 mph93%30.21 "Hg9 mi
12:20 PM46 °FPartly sunny.16 mph93%30.21 "Hg9 mi
11:50 AM46 °FLight rain. Partly sunny.17 mph93%30.21 "Hg7 mi
11:20 AM46 °FLight rain. Partly sunny.16 mph93%30.21 "Hg7 mi
10:50 AM46 °FLight rain. Partly sunny.15 mph93%30.18 "Hg7 mi
9:50 AM46 °FLight rain. Partly sunny.13 mph93%30.18 "Hg7 mi
8:50 AM46 °FRain. Broken clouds.12 mph93%30.15 "Hg4 mi
7:50 AM46 °FRain. Partly sunny.12 mph100%30.12 "Hg4 mi
6:50 AM48 °FRain. Partly sunny.8 mph94%30.09 "Hg4 mi
5:50 AM48 °FLight rain. Mostly cloudy.13 mph100%30.07 "Hg5 mi
10:50 PM
Tue, May 3
50 °FLight rain. Overcast.10 mph94%30.01 "Hg5 mi
9:50 PM52 °FLight rain. Passing clouds.7 mph82%30.01 "Hg6 mi
8:50 PM57 °FBroken clouds.6 mph55%29.98 "Hg12 mi
7:50 PM57 °FBroken clouds.7 mph59%29.95 "Hg19 mi
6:50 PM61 °FBroken clouds.6 mph55%29.92 "Hg19 mi
5:50 PM61 °FPartly sunny.9 mph55%29.92 "Hg16 mi
4:50 PM61 °FBroken clouds.9 mph55%29.92 "Hg16 mi
Weather by CustomWeather, © 2016

See weather overviewHow to use our weather pages